Lexington Weather

Lexington, Massachusetts, USA

47°F
10/22/2019 2:23am 
  • Lexington Conditions: Mostly cloudy
  • Temperature: 46.6°F / 8.1°CWarmer 1.3°F than last hour.
  • Dew Point: 45.0°FIncreased 1.8°Fsince last hour.
  • Relative Humidity: 94%Increased 2.0% since last hour.
  • Wind: Calm, 10-min avg: Calm, gust: None
  • Barometer: 30.12 in Steady
  • Visibility: 9 miles
  • Rain Today: 0.00 in
  •   

Regional Weather Roundup
for Boston, MA

        
000
ASUS41 KBOX 220100
RWRBOX

REGIONAL WEATHER ROUNDUP
NATIONAL WEATHER SERVICE BOSTON/NORTON MA
900 PM EDT MON OCT 21 2019

NOTE:  "FAIR" INDICATES FEW OR NO CLOUDS BELOW 12,000 FEET WITH NO 
SIGNIFICANT WEATHER AND/OR OBSTRUCTIONS TO VISIBILITY.

MAZALL-220200-
EASTERN MASSACHUSETTS
  
CITY           SKY/WX    TMP DP  RH WIND       PRES   REMARKS
BOSTON         FAIR      55  49  80 NE7       30.16R                  
BEVERLY        FAIR      46  43  89 CALM      30.15S                  
LAWRENCE       FAIR      48  45  89 N3        30.18R                  
BEDFORD        FAIR      48  42  80 CALM      30.15R                  
BLUE HILL      NOT AVBL                                               
NORWOOD        FAIR      45  41  86 CALM      30.16R FOG              
MARSHFIELD     NOT AVBL                                               
PLYMOUTH       FAIR      50  47  89 NE5       30.14F                  
TAUNTON        FAIR      43  39  86 CALM      30.15S FOG              
NEW BEDFORD    FAIR      45  42  89 CALM      30.14S                  
$$

MAZALL-220200-
CAPE COD AND THE ISLANDS
  
CITY           SKY/WX    TMP DP  RH WIND       PRES   REMARKS
FALMOUTH       CLEAR     52  48  87 NE10      30.13S                  
HYANNIS        NOT AVBL                                               
CHATHAM        NOT AVBL                                               
PROVINCETOWN   FAIR      54  50  86 NE12        N/A                   
NANTUCKET      FAIR      53  51  93 N14       30.11S                  
MARTHAS VNYRD  FAIR      52  50  93 NE9       30.12S                  
$$
 
MAZALL-220200-
CENTRAL AND WESTERN MASSACHUSETTS
  
CITY           SKY/WX    TMP DP  RH WIND       PRES   REMARKS
WORCESTER      FAIR      51  46  83 N3        30.16R                  
FITCHBURG      FAIR      47  44  90 NW3       30.18R                  
ORANGE         FAIR      46  43  89 CALM      30.17R                  
SPRINGFIELD    CLEAR     47  46  94 CALM      30.13R                  
WESTFIELD      FAIR      48  45  89 CALM      30.14R                  
NORTH ADAMS    FAIR      42  40  92 CALM      30.14R                  
PITTSFIELD     FAIR      46  43  89 NE3       30.13R                  
$$
 
RIZALL-220200-
RHODE ISLAND
  
CITY           SKY/WX    TMP DP  RH WIND       PRES   REMARKS
PROVIDENCE     FAIR      51  44  77 NE6       30.16R                  
NEWPORT        FAIR      53  47  79 NE12      30.13S                  
BLOCK ISLAND   FAIR      55  45  68 NE12G21   30.12S                  
SMITHFIELD     FAIR     N/A N/A N/A NE5       30.16R                  
WESTERLY       FAIR      54  46  74 NE7       30.13R                  
$$
 
CTZALL-220200-
CONNECTICUT
  
CITY           SKY/WX    TMP DP  RH WIND       PRES   REMARKS
BRADLEY INTL   FAIR      50  46  86 N3        30.13R                  
HARTFORD       FAIR      51  48  89 CALM      30.13R                  
BRIDGEPORT     FAIR      56  50  80 NE3       30.12R                  
DANBURY        FAIR      47  44  90 CALM      30.12S                  
GROTON         NOT AVBL                                               
NEW HAVEN      FAIR      50  48  93 CALM      30.14R                  
CHESTER        FAIR      54  46  76 CALM      30.14R                  
MERIDEN        FAIR      48  46  93 CALM      30.14R                  
WILLIMANTIC    FAIR      49  46  90 NE3       30.14S                  
OXFORD         FAIR      53  46  77 CALM      30.14R                  
$$

MEZ002-015-021-024-NHZ003-005-008-011-012-014-VTZ005-008-220200-
NORTHERN NEW ENGLAND
  
CITY           SKY/WX    TMP DP  RH WIND       PRES   REMARKS
PORTLAND ME    FAIR      47  45  93 CALM      30.18R                  
BANGOR ME      FAIR      44  42  93 CALM      30.19R                  
CONCORD NH     FAIR      47  44  90 CALM      30.17R                  
MANCHESTER NH  FAIR      50  44  80 CALM      30.15S                  
NASHUA NH      FAIR      48  46  93 CALM      30.18R                  
PORTSMOUTH NH  CLEAR     47  47  97 CALM      30.15F                  
JAFFREY NH     FAIR      45  42  89 CALM      30.17R                  
KEENE NH       FOG       44  44 100 CALM      30.17R VSB 1/2          
BURLINGTON VT  FAIR      47  42  83 CALM      30.13S                  
MT. WASHINGTON PTCLDY    45 -15   8 E10         N/A                   
$$

NYZ052-076-220200-
EASTERN NEW YORK
  
CITY           SKY/WX    TMP DP  RH WIND       PRES   REMARKS
ALBANY         FAIR      48  44  86 CALM      30.14R                  
NEW YORK CITY  FAIR      60  51  72 W5        30.11R                  
$$
 
ANZALL-220200-
MARINE OBSERVATIONS
  
STATION/POSITION TIME  TEMP    WIND        PRES    VSBY  WAVE
                       AIR SEA DIR/SP/G                  HT/PER
                 (UTC) (F)     (DEG/KT/KT) (MB)    (MI)  (FT/S)
BOSTON BUOY      2350   55 57   50/ 10/ 12 1020.2          3/ 5
BUZZARDS BAY     0000   55      30/ 18/ 20 1020.6R
NANTUCKET SOUND  0020      57              1019.9
MASS BAY-STELLWA 0004   55 56   50/ 10/ 12 1020.6R  1 7/8  2/ 5
ISLE OF SHOALS   0000   54      70/  2/  2 1021.2R
S OF BLOCK IS    0030      60                N/A           8/ 9
$$

......................KEY.........................
  SKY/WX - SKY CONDITION/PRESENT WEATHER
  TMP    - TEMPERATURE IN FAHRENHEIT
  DWPT   - DEWPOINT IN FAHRENHEIT
  RH     - RELATIVE HUMIDITY IN PERCENT
  WIND   - DIRECTION AND SPEED IN MPH
  PRES   - MEAN SEA LEVEL PRESSURE IN INCHES OF HG
  WCI    - WIND CHILL INDEX
  VSB    - VISIBILITY IN MILES
  HX     - HEAT INDEX
  TC     - TEMPERATURE IN CELSIUS
  VRB    - VARIABLE WIND DIRECTION
  N/A    - NOT AVAILABLE
  
      

Other recent Regional Weather Roundups

Tue Oct 22, 2:10am

Tue Oct 22, 2:00am

Tue Oct 22, 1:10am

Tue Oct 22, 1:00am

Tue Oct 22, 12:10am

Tue Oct 22, 12:00am

Mon Oct 21, 11:10pm

Mon Oct 21, 11:00pm

Mon Oct 21, 10:10pm

Mon Oct 21, 10:01pm

Mon Oct 21, 9:10pm

Mon Oct 21, 8:10pm

Mon Oct 21, 8:00pm

Mon Oct 21, 7:10pm

Mon Oct 21, 7:01pm

Mon Oct 21, 6:10pm

Mon Oct 21, 6:01pm

Mon Oct 21, 5:10pm

Mon Oct 21, 5:01pm

Mon Oct 21, 4:10pm

Mon Oct 21, 4:00pm

Mon Oct 21, 3:10pm

Mon Oct 21, 3:01pm

Mon Oct 21, 2:10pm

Mon Oct 21, 2:00pm

Mon Oct 21, 1:10pm

Mon Oct 21, 1:01pm

Mon Oct 21, 12:10pm

Mon Oct 21, 12:00pm

Mon Oct 21, 11:10am

Mon Oct 21, 11:00am

Mon Oct 21, 10:10am

Mon Oct 21, 10:00am

Mon Oct 21, 9:10am

Mon Oct 21, 9:00am

Mon Oct 21, 7:10am

Mon Oct 21, 7:00am

Mon Oct 21, 6:10am

Mon Oct 21, 6:00am

Mon Oct 21, 5:10am

Mon Oct 21, 5:00am

Mon Oct 21, 4:10am

Mon Oct 21, 4:00am

Mon Oct 21, 3:10am

Mon Oct 21, 3:00am

Mon Oct 21, 2:10am

Mon Oct 21, 2:01am

Mon Oct 21, 1:10am

Mon Oct 21, 1:00am

Mon Oct 21, 12:10am

Mon Oct 21, 12:00am

Sun Oct 20, 11:10pm

Sun Oct 20, 11:00pm

Sun Oct 20, 10:10pm

Sun Oct 20, 10:00pm

Sun Oct 20, 9:10pm

Sun Oct 20, 9:01pm

Sun Oct 20, 8:10pm

Sun Oct 20, 8:00pm

Sun Oct 20, 7:10pm

Sun Oct 20, 7:01pm

Sun Oct 20, 6:10pm

Sun Oct 20, 6:00pm

Sun Oct 20, 5:10pm

Sun Oct 20, 5:00pm

Sun Oct 20, 4:10pm

Sun Oct 20, 4:00pm

Sun Oct 20, 3:10pm

Sun Oct 20, 3:00pm

Sun Oct 20, 2:10pm

Sun Oct 20, 2:01pm

Sun Oct 20, 1:10pm

Sun Oct 20, 1:01pm

Sun Oct 20, 12:10pm

Sun Oct 20, 12:00pm

Sun Oct 20, 11:10am

Sun Oct 20, 11:00am

Sun Oct 20, 10:10am

Sun Oct 20, 10:00am

Sun Oct 20, 9:10am

Sun Oct 20, 9:00am

Sun Oct 20, 8:10am

Sun Oct 20, 8:00am

Sun Oct 20, 7:10am

Sun Oct 20, 7:00am

Sun Oct 20, 6:10am

Sun Oct 20, 6:00am

Sun Oct 20, 5:10am

Sun Oct 20, 5:00am

Sun Oct 20, 4:10am

Sun Oct 20, 4:00am

Sun Oct 20, 3:10am

Sun Oct 20, 3:00am

Sun Oct 20, 2:10am

Sun Oct 20, 2:00am

Sun Oct 20, 1:10am

Sun Oct 20, 1:00am

Sun Oct 20, 12:10am

Sun Oct 20, 12:00am

Sat Oct 19, 11:10pm

Sat Oct 19, 11:00pm

Sat Oct 19, 10:10pm

Sat Oct 19, 10:00pm

Sat Oct 19, 9:10pm

Sat Oct 19, 9:00pm

Sat Oct 19, 8:10pm

Sat Oct 19, 8:00pm

Sat Oct 19, 7:10pm

Sat Oct 19, 7:00pm

Sat Oct 19, 6:10pm

Sat Oct 19, 6:00pm

Sat Oct 19, 5:10pm

Sat Oct 19, 5:00pm

Sat Oct 19, 4:10pm

Sat Oct 19, 4:00pm

Sat Oct 19, 3:10pm

Sat Oct 19, 3:01pm

Sat Oct 19, 2:10pm

Sat Oct 19, 2:00pm

Sat Oct 19, 1:10pm

Sat Oct 19, 1:01pm

Sat Oct 19, 12:10pm

Sat Oct 19, 12:00pm

Sat Oct 19, 11:10am

Sat Oct 19, 11:01am

Sat Oct 19, 10:10am

Sat Oct 19, 10:00am

Sat Oct 19, 9:10am

Sat Oct 19, 9:00am

Sat Oct 19, 8:10am

Sat Oct 19, 8:00am

Sat Oct 19, 7:10am

Sat Oct 19, 7:00am

Sat Oct 19, 6:10am

Sat Oct 19, 6:00am

Sat Oct 19, 5:10am

Sat Oct 19, 5:00am

Sat Oct 19, 4:10am

Sat Oct 19, 4:00am

Sat Oct 19, 3:10am

Sat Oct 19, 3:00am

Meta data:

ID: 344896cd-69f0-400f-b54b-31de8e9daf8d
Link: https://api.weather.gov/products/344896cd-69f0-400f-b54b-31de8e9daf8d